Flag for Seychelles Weather past 2 weeks in Victoria, Seychelles

Now
79 °F

Partly cloudy.


Feels Like: 82 °F
Forecast: 76 / 81 °F
Wind: 8 mph from Southeast

Location: National Airport

Current Time: Jul 2, 2015 at 3:33:05 AM

Latest Report: Jul 2, 2015 at 3:00 AM


Visibility: N/A

Pressure: 29.92 "Hg

Humidity: 89%

Dew point: 75 °F

Location of VictoriaLocation

Historic Weather in Victoria — Graph

°F

Victoria temperature yesterday

Maximum temperature yesterday: 86 °F (at 12:00 PM)
Minimum temperature yesterday: 79 °F (at 6:00 AM)
Average temperature yesterday: 82 °F

Past Weeks' High & Low Weather Summary

 TemperatureHumidityPressure
High88 °F (Jun 17, 12:00 PM)94% (Jun 18, 1:00 AM)29.98 "Hg (Jun 18, 1:00 AM)
Low77 °F (Jun 26, 2:00 AM)62% (Jun 17, 12:00 PM)29.24 "Hg (Jul 1, 2:00 PM)
Average82 °F81%29.88 "Hg
* Reported Jun 17 1:00 AM — Jul 2 1:00 AM, Victoria, Weather by CustomWeather, © 2015

Note: Actual official high and low records may vary slightly from our data, if they occured in-between our weather recording intervals... More about our weather records

Advertising

Victoria weather history for previous 24 hours

 ConditionsComfort  
Time TempWeatherWind HumidityBarometerVisibility
1:00 AM
Thu, Jul 2
81 °FPassing clouds.7 mph84%29.92 "HgN/A
12:00 AM81 °FPartly cloudy.7 mph84%29.95 "HgN/A
11:00 PM
Wed, Jul 1
81 °FPartly cloudy.7 mph84%29.95 "HgN/A
10:00 PM81 °FPassing clouds.6 mph84%29.95 "HgN/A
9:00 PM81 °FPassing clouds.6 mph84%29.95 "HgN/A
8:00 PM81 °FPassing clouds.7 mph84%29.92 "HgN/A
7:00 PM81 °FPassing clouds.8 mph79%29.92 "HgN/A
6:00 PM82 °FPartly sunny.6 mph70%29.89 "HgN/A
5:00 PM84 °FPartly sunny.7 mph70%29.89 "HgN/A
4:00 PM82 °FPartly sunny.5 mph74%29.86 "HgN/A
3:00 PM84 °FPartly sunny.6 mph74%29.86 "HgN/A
2:00 PMN/ABroken clouds.7 mphN/A29.24 "HgN/A
1:00 PM86 °FScattered clouds.8 mph70%29.92 "HgN/A
12:00 PM86 °FPassing clouds.9 mph70%29.92 "HgN/A
11:00 AM84 °FPassing clouds.7 mph74%29.95 "HgN/A
10:00 AM84 °FPassing clouds.7 mph74%29.95 "HgN/A
9:00 AM84 °FPassing clouds.9 mph79%29.95 "HgN/A
8:00 AM81 °FPassing clouds.7 mph89%29.92 "HgN/A
7:00 AM79 °FScattered clouds.5 mph89%29.92 "HgN/A
6:00 AM79 °FPassing clouds.3 mph89%N/AN/A
5:00 AM81 °FPassing clouds.6 mph84%29.89 "HgN/A
4:00 AM81 °FPassing clouds.5 mph79%29.86 "HgN/A
3:00 AM81 °FPassing clouds.5 mph79%29.86 "HgN/A
Weather by CustomWeather, © 2015

See weather overviewHow to use our weather pages